When you browse on this site, cookies collect data to enhance your experience and personalize the content and advertising you see.
Visit our Privacy Policy to learn more. By continuing to use the site, you agree to this use of cookies and data.
  • In Sweden
  • List of Countries
  • For 7 days
  • Water Temperature
  • Satellite Maps
  • Weather Map
  • Weather Widgets
  • user-avatar
    Login

    Hourly Weather Dalkow

    Today, 19 February, Tuesday

    Time Temperature Precipitation Wind Pressure Humidity
    00:00 +3°C° 0 mm 3 mps 745 mmHg 75%
    01:00 +3°C° 0 mm 3 mps 745 mmHg 78%
    02:00 +2°C° 0 mm 3 mps 745 mmHg 78%
    03:00 +2°C° 0 mm 3 mps 744 mmHg 78%
    04:00 +2°C° 0 mm 3 mps 744 mmHg 78%
    05:00 +1°C° 0 mm 3 mps 744 mmHg 78%
    06:00 0°C° 0 mm 4 mps 744 mmHg 78%
    07:00 +1°C° 0 mm 3 mps 743 mmHg 77%
    08:00 +1°C° 0 mm 4 mps 743 mmHg 72%
    09:00 +3°C° 0 mm 5 mps 743 mmHg 68%
    10:00 +5°C° 0 mm 5 mps 743 mmHg 63%
    11:00 +6°C° 0 mm 5 mps 742 mmHg 59%
    12:00 +8°C° 0 mm 5 mps 742 mmHg 56%
    13:00 +11°C° 0 mm 4 mps 742 mmHg 53%
    14:00 +10°C° 0 mm 4 mps 742 mmHg 55%
    15:00 +10°C° 0 mm 4 mps 742 mmHg 57%
    16:00 +10°C° 0 mm 4 mps 742 mmHg 59%
    17:00 +8°C° 0 mm 4 mps 742 mmHg 65%
    18:00 +7°C° 0 mm 4 mps 742 mmHg 71%
    19:00 +6°C° 0 mm 4 mps 742 mmHg 77%
    20:00 +6°C° 0.1 mm 4 mps 742 mmHg 80%
    21:00 +5°C° 0.1 mm 4 mps 742 mmHg 83%
    22:00 +5°C° 0.1 mm 5 mps 743 mmHg 86%
    23:00 +3°C° 0 mm 5 mps 743 mmHg 87%

    Tomorrow, 20 February, Wednesday

    Time Temperature Precipitation Wind Pressure Humidity
    00:00 +3°C° 0 mm 5 mps 743 mmHg 87%
    01:00 +2°C° 0 mm 5 mps 743 mmHg 88%
    02:00 +2°C° 0 mm 5 mps 743 mmHg 88%
    03:00 +2°C° 0 mm 5 mps 743 mmHg 89%
    04:00 +1°C° 0 mm 6 mps 743 mmHg 89%
    05:00 +1°C° 0 mm 6 mps 744 mmHg 89%
    06:00 +2°C° 0 mm 6 mps 744 mmHg 88%
    07:00 +2°C° 0 mm 6 mps 744 mmHg 87%
    08:00 +2°C° 0.1 mm 6 mps 744 mmHg 85%
    09:00 +2°C° 0.1 mm 6 mps 745 mmHg 83%
    10:00 +2°C° 0.1 mm 6 mps 745 mmHg 82%
    11:00 +2°C° 0.1 mm 6 mps 745 mmHg 80%
    12:00 +3°C° 0.1 mm 7 mps 746 mmHg 78%
    13:00 +3°C° 0.1 mm 7 mps 746 mmHg 77%
    14:00 +3°C° 0.1 mm 6 mps 746 mmHg 76%
    15:00 +3°C° 0.1 mm 6 mps 746 mmHg 75%
    16:00 +3°C° 0.1 mm 6 mps 746 mmHg 74%
    17:00 +3°C° 0.1 mm 6 mps 747 mmHg 76%
    18:00 +3°C° 0.1 mm 5 mps 747 mmHg 78%
    19:00 +3°C° 0.1 mm 5 mps 747 mmHg 80%
    20:00 +4°C° 0.1 mm 4 mps 747 mmHg 80%
    21:00 +4°C° 0.1 mm 4 mps 748 mmHg 81%
    22:00 +3°C° 0.1 mm 4 mps 748 mmHg 81%
    23:00 +3°C° 0 mm 4 mps 748 mmHg 83%

    Day after tomorrow, 21 February, Thursday

    Time Temperature Precipitation Wind Pressure Humidity
    00:00 +3°C° 0 mm 4 mps 748 mmHg 84%
    01:00 +3°C° 0 mm 4 mps 748 mmHg 86%
    02:00 +3°C° 0 mm 4 mps 748 mmHg 88%
    03:00 +3°C° 0 mm 4 mps 748 mmHg 90%
    04:00 +3°C° 0 mm 4 mps 748 mmHg 92%
    05:00 +3°C° 0.1 mm 4 mps 748 mmHg 91%
    06:00 +3°C° 0.1 mm 4 mps 748 mmHg 91%
    07:00 +3°C° 0.1 mm 4 mps 748 mmHg 91%
    08:00 +2°C° 0.3 mm 5 mps 748 mmHg 88%
    09:00 +2°C° 0.3 mm 6 mps 747 mmHg 85%
    10:00 +3°C° 0.3 mm 6 mps 747 mmHg 83%
    11:00 +3°C° 0.7 mm 6 mps 747 mmHg 83%
    12:00 +3°C° 0.7 mm 7 mps 746 mmHg 84%
    13:00 +3°C° 0.7 mm 7 mps 746 mmHg 85%
    14:00 +4°C° 0.4 mm 7 mps 746 mmHg 85%
    15:00 +4°C° 0.4 mm 6 mps 746 mmHg 84%
    16:00 +4°C° 0.4 mm 6 mps 746 mmHg 83%
    17:00 +4°C° 0.9 mm 6 mps 745 mmHg 85%
    18:00 +4°C° 0.9 mm 6 mps 745 mmHg 87%
    19:00 +4°C° 0.9 mm 6 mps 745 mmHg 90%
    20:00 +4°C° 0.5 mm 6 mps 745 mmHg 90%
    21:00 +4°C° 0.5 mm 6 mps 745 mmHg 91%
    22:00 +4°C° 0.5 mm 6 mps 745 mmHg 91%
    23:00 +4°C° 0.3 mm 6 mps 746 mmHg 91%

    22 February, Friday

    Time Temperature Precipitation Wind Pressure Humidity
    00:00 +4°C° 0.3 mm 6 mps 746 mmHg 91%
    01:00 +4°C° 0.3 mm 6 mps 746 mmHg 92%
    02:00 +3°C° 0.8 mm 6 mps 747 mmHg 90%
    03:00 +2°C° 0.8 mm 6 mps 747 mmHg 89%
    04:00 -1°C° 0.8 mm 7 mps 748 mmHg 87%
    05:00 -2°C° 0 mm 7 mps 749 mmHg 83%
    06:00 -3°C° 0 mm 7 mps 750 mmHg 79%
    07:00 -4°C° 0 mm 7 mps 752 mmHg 75%
    08:00 -4°C° 0 mm 7 mps 753 mmHg 69%
    09:00 -4°C° 0 mm 6 mps 754 mmHg 64%
    10:00 -4°C° 0 mm 6 mps 756 mmHg 59%
    11:00 -4°C° 0 mm 6 mps 756 mmHg 56%
    12:00 -2°C° 0 mm 5 mps 757 mmHg 52%
    13:00 -2°C° 0 mm 5 mps 758 mmHg 49%
    14:00 -2°C° 0 mm 5 mps 758 mmHg 49%
    15:00 -3°C° 0 mm 4 mps 758 mmHg 49%
    16:00 -3°C° 0 mm 4 mps 759 mmHg 49%
    17:00 -4°C° 0 mm 4 mps 759 mmHg 51%
    18:00 -4°C° 0 mm 3 mps 760 mmHg 53%
    19:00 -5°C° 0 mm 3 mps 760 mmHg 55%
    20:00 -5°C° 0 mm 3 mps 761 mmHg 54%
    21:00 -4°C° 0 mm 2 mps 761 mmHg 53%
    22:00 -4°C° 0 mm 2 mps 761 mmHg 52%
    23:00 -2°C° 0 mm 1 mps 761 mmHg 51%

    23 February, Saturday

    Time Temperature Precipitation Wind Pressure Humidity
    00:00 -2°C° 0 mm 1 mps 761 mmHg 50%
    01:00 -2°C° 0 mm 1 mps 761 mmHg 49%
    02:00 -2°C° 0 mm 1 mps 761 mmHg 48%
    03:00 -2°C° 0 mm 1 mps 761 mmHg 48%
    04:00 -2°C° 0 mm 1 mps 761 mmHg 48%
    05:00 -2°C° 0 mm 1 mps 761 mmHg 48%
    06:00 -2°C° 0 mm 1 mps 761 mmHg 48%
    07:00 -2°C° 0 mm 1 mps 761 mmHg 48%
    08:00 -1°C° 0 mm 1 mps 761 mmHg 44%
    09:00 -1°C° 0 mm 1 mps 761 mmHg 40%
    10:00 0°C° 0 mm 1 mps 761 mmHg 35%
    11:00 +1°C° 0 mm 1 mps 760 mmHg 33%
    12:00 +1°C° 0 mm 2 mps 760 mmHg 31%
    13:00 +1°C° 0 mm 2 mps 760 mmHg 29%
    14:00 +1°C° 0 mm 2 mps 759 mmHg 32%
    15:00 +1°C° 0 mm 2 mps 759 mmHg 34%
    16:00 +1°C° 0 mm 2 mps 758 mmHg 36%
    17:00 -1°C° 0 mm 2 mps 758 mmHg 42%
    18:00 -1°C° 0 mm 2 mps 758 mmHg 47%
    19:00 0°C° 0 mm 1 mps 758 mmHg 52%
    20:00 +1°C° 0 mm 1 mps 758 mmHg 52%
    21:00 +1°C° 0 mm 1 mps 758 mmHg 52%
    22:00 +1°C° 0 mm 1 mps 758 mmHg 52%
    23:00 -1°C° 0 mm 2 mps 757 mmHg 52%

    24 February, Sunday

    Time Temperature Precipitation Wind Pressure Humidity
    00:00 -1°C° 0 mm 2 mps 757 mmHg 52%
    01:00 -1°C° 0 mm 2 mps 757 mmHg 52%
    02:00 -1°C° 0 mm 3 mps 757 mmHg 57%
    03:00 -1°C° 0 mm 3 mps 756 mmHg 62%
    04:00 -1°C° 0 mm 3 mps 756 mmHg 67%
    05:00 -1°C° 0 mm 3 mps 756 mmHg 74%
    06:00 -1°C° 0 mm 2 mps 756 mmHg 81%
    07:00 -1°C° 0 mm 2 mps 756 mmHg 88%
    08:00 -1°C° 0 mm 2 mps 757 mmHg 88%
    09:00 0°C° 0 mm 3 mps 757 mmHg 89%
    10:00 +1°C° 0 mm 3 mps 757 mmHg 90%
    11:00 +1°C° 0 mm 3 mps 757 mmHg 89%
    12:00 +2°C° 0 mm 3 mps 757 mmHg 88%
    13:00 +2°C° 0 mm 3 mps 758 mmHg 88%
    14:00 +3°C° 0 mm 2 mps 758 mmHg 86%
    15:00 +3°C° 0 mm 2 mps 758 mmHg 85%
    16:00 +3°C° 0 mm 2 mps 758 mmHg 84%
    17:00 +2°C° 0 mm 2 mps 758 mmHg 86%
    18:00 +2°C° 0 mm 2 mps 759 mmHg 88%
    19:00 +1°C° 0 mm 2 mps 759 mmHg 90%
    20:00 +1°C° 0 mm 2 mps 759 mmHg 90%
    21:00 +1°C° 0 mm 2 mps 759 mmHg 91%
    22:00 -1°C° 0 mm 2 mps 759 mmHg 91%
    23:00 +1°C° 0 mm 1 mps 759 mmHg 92%
    Show more